Location: Newark
(12.4436°N, 0.6167°W)
Time: 04:35:23
(UTC+00:00)

Vanguard 2 - Pass Details

Date: 14 December 2019
Orbit: 553 x 2938 km, 32.9° (Epoch: 28 January)

Event Time Altitude Azimuth Distance (km) Brightness Sun altitude
Rises 20:27:48 0° 215° (SW) 3,579 11.6 -39.3°
Reaches altitude 10° 20:30:06 10° 207° (SSW) 2,869 10.9 -39.8°
Enters shadow 20:33:18 28° 186° (S) 2,127 9.8 -40.6°
Maximum altitude 20:36:51 42° 137° (SE) 1,968 - -41.4°
Drops below altitude 10° 20:47:46 10° 71° (ENE) 4,612 - -43.9°
Sets 20:52:31 0° 66° (ENE) 5,988 - -44.9°
